User: anonymous   Login
Location: Bacea
(45.9500°N, 22.6667°E)
Time: 14:30:59
(UTC+00:00)
Language:

Cosmos 371 Rocket - Orbit

View from above orbital plane
View from above orbital plane
View from above satellite
View from above satellite

Ground track
Ground track

The orbit data is extracted from the following two-line orbital elements,

1 04579U 70083B   22019.53211154  .00000255  00000-0  58660-4 0  9990
2 04579  74.0027 122.3126 0009166  81.8992 278.3213 14.60578123719575
Epoch (UTC): 19 January 2022 12:46:14
Eccentricity: 0.0009166
inclination: 74.0027°
perigee height: 685 km
apogee height: 698 km
right ascension of ascending node: 122.3126°
argument of perigee: 81.8992°
revolutions per day: 14.60578123
mean anomaly at epoch: 278.3213°
orbit number at epoch: 71957

The dashed part of the orbit path shows where the satellite is in the earth's shadow,  

DLR